Regional Weather Roundup
Issued by NWS

Home | Current Version | Previous Version | Graphics & Text | Print | Product List | Glossary On
Versions: 1 2 3 4 5 6 7 8 9 10 11 12 13 14 15 16 17 18 19 20 21 22 23 24 25 26 27 28 29 30 31 32 33 34 35 36 37 38 39 40 41 42 43 44 45 46 47 48 49 50
000
ASUS43 KFSD 301210
RWRSD

WEATHER ROUNDUP FOR SOUTH DAKOTA
NATIONAL WEATHER SERVICE SIOUX FALLS SD
700 AM CDT THU JUL 30 2015

NOTE: "FAIR" INDICATES FEW OR NO CLOUDS BELOW 12,000 FEET WITH NO
SIGNIFICANT WEATHER AND/OR OBSTRUCTIONS TO VISIBILITY.


SDZ001>005-009-010-012>017-301300-
NORTHWEST AND NORTH CENTRAL SOUTH DAKOTA

CITY           SKY/WX    TMP DP  RH WIND       PRES   REMARKS
BUFFALO          N/A     54  40  59 W7        30.15S
FAITH            N/A     56  41  57 N5        30.19R
MOBRIDGE       CLEAR     55  55 100 CALM      30.13R
$$

SDZ012>016-024>037-041>051-057-063-072>074-301300-
SOUTHWEST AND SOUTH CENTRAL SOUTH DAKOTA

CITY           SKY/WX    TMP DP  RH WIND       PRES   REMARKS
RAPID CTY ARPT CLEAR     55  45  68 NW8       30.24S
PIERRE         CLEAR     54  49  83 CALM      30.13S
CUSTER         CLEAR     49  36  61 NW5       30.36R
ELLSWORTH AFB  CLEAR     54  45  71 NW6       30.22S
PHILIP         CLEAR     52  50  93 W7        30.17S
PINE RIDGE     CLEAR     53  47  79 W3        30.24R
SPEARFISH      FAIR      57  39  51 CALM      30.28S
WINNER         FAIR      65  51  60 W6        30.17R
$$

SDZ004>011-016>023-039-040-301300-
NORTHEAST SOUTH DAKOTA

CITY           SKY/WX    TMP DP  RH WIND       PRES   REMARKS
ABERDEEN       CLEAR     57  51  80 SW3       30.11R
WATERTOWN      CLEAR     64  54  69 W7        30.13R
BROOKINGS      CLEAR     57  52  82 CALM      30.15S
SISSETON         N/A     62  54  74 W7        30.07R
$$

SDZ017-020-022-023-036>040-048>070-301300-
SOUTHEAST SOUTH DAKOTA

CITY           SKY/WX    TMP DP  RH WIND       PRES   REMARKS
SIOUX FALLS    PTCLDY    59  56  89 CALM      30.13S
HURON          CLEAR     58  54  86 CALM      30.12S
CHAMBERLAIN    CLEAR     54  52  94 CALM      30.15R
MITCHELL       CLEAR     58  56  93 S5        30.13S
YANKTON        PTCLDY    68  55  64 SW9       30.14R
$$

ABBREVIATIONS USED IN REMARKS
   TC - TEMPERATURE IN CELSIUS
  WCI - WIND CHILL INDEX
   HX - HEAT INDEX
  VSB - VISIBILITY




USA.gov is the U.S. government's official web portal to all federal, state and local government web resources and services.